Location: LDNL
(36.4545°S, 141.6685°E)
Time: 17:20:02
(UTC+10:00)

Courier 1B Rocket - Pass Details

Date: 14 August 2022
Orbit: 920 x 1202 km, 28.2° (Epoch: 25 September)

Event Time Altitude Azimuth Distance (km) Brightness Sun altitude
Exits shadow 06:43:55 - 281° (W) 3,561 7.4 -7.4°
Reaches altitude 10° 06:45:17 10° 284° (WNW) 3,123 7.1 -7.1°
Maximum altitude 06:52:33 43° 352° (N) 1,568 6.2 -5.7°
Drops below altitude 10° 06:59:27 10° 61° (ENE) 2,972 9.2 -4.4°
Sets 07:02:16 0° 67° (ENE) 3,886 10.7 -3.8°
